STARLINK-1434, 45712

Orbit data source: Space-Track

STARLINK-1434, 45712 is a payload satellite owned by SpaceX/Seattle (US) in LEO that was launched on Thu, 04 Jun 2020 UTC via an FALCON 9 launch vehicle from the Air Force Eastern Test Range (AFETR). Payload-class satellites include a variety of spacecraft equipped with specific instruments for various scientific and technological missions. These include communications satellites like Starlink; space stations such as the ISS; scientific satellites like the Hubble; Earth observation satellites from companies like Planet Labs, Umbra, and HawkEye 360; GPS; miniature CubeSats for education and research; and military/defense satellites.

Loading next visibility...
Identifier
45712, 2020-035BH
Orbit
LEO
Country
Flag of USUS
Related business
Manufacturer
SpaceX/Seattle
Mission
Partially operational Commercial Communications
Bus & Motor
STARLINK, Unknown motor
Mass
260 kg wet, ~248 kg dry
Launch date (UTC)
2020-06-04 (6 years ago)
Launch vehicle
FALCON 9
Launch site
Air Force Eastern Test Range (AFETR)
Object type
Payload
Rocket body
Debris
Shape & HBR
Box + 1 Pan, 10.1 m
Radar Cross Section
13.562 m², Large (>1 m²)

Expand to show TLE details & history
Last TLE update: 7 hours ago

TLE from 7 hours ago
0 STARLINK-1434
1 45712U 20035BH  26072.95385296  .00055913  00000-0  20626-2 0  9994
2 45712  53.0531   0.2784 0005469 110.1777 249.9810 15.27256542320048
Epoch: 2026-03-13T22:53Z
TLE epoch observation values (Epoch: 2026-03-13T22:53:32.895Z)
Latitude
-0.00001°
Longitude
-154.69066°
Altitude
486.191 km
Speed
7.623 km/s
True Right ascension
00h 01m 06s
True Declination
0° 00' 00"
Sunlit
Object was in daylight at epoch
Visualization orbit readout
Latitude
Unknown
Longitude
Unknown
Altitude
Unknown
Speed
Unknown
Apparent Right ascension
Unknown
Apparent Declination
Unknown
Sunlit
N/A
Visualization observer readout
Local Sidereal Time
09:51:56
Azimuth
Unknown
Elevation
Unknown
Doppler factor
Unknown
Orbital elements
Apogee altitude
488.044 km
Perigee altitude
480.538 km
Semi-major axis
6,862.428 km
Eccentricity
0.00055
Inclination
53.0531°
RAAN
0.2784°
Arg. of periapsis
110.1777°
True anomaly
249.92213°
Mean anomaly
249.981°
Eccentric anomaly
249.95156°
Mean motion
3.81792 °/min
Orbital period
94.29 mins
BSTAR
0.0020626
Loading maneuver chart data...
Computing Atmospheric mass density...
Loading historical data...
Loading historical data...
Loading historical data...
Loading historical data...
Loading historical data...
Loading historical data...
Loading historical data...

Documentation

Showing up to 5 results
|